This demonstration page uses our WeatherBlox Daily Observations layout. Learn more.

Left ArrowRight Arrow

41.86663, -103.66717

Hourly Observations for September 8, 2021

Temp ( °F °C ) Dew Point ( °F °C ) Humidity (%) Winds ( mph kmh ) Pressure ( in mb ) Visibility ( mi km ) Precip ( " mm )
12:53 am 00:53 Clear 56 13.3 46 7.8 70 70 E 5 7 30.08 1019 10 16 0.00 0.00
1:53 am 01:53 Clear 56 13.3 46 7.8 70 70 ENE 3 6 30.08 1019 10 16 0.00 0.00
2:53 am 02:53 Clear 54 12.2 45 7.2 72 72 ESE 7 11 30.08 1019 10 16 0.00 0.00
3:53 am 03:53 Clear 53 11.7 45 7.2 74 74 ENE 3 6 30.08 1019 10 16 0.00 0.00
4:53 am 04:53 Clear 51 10.6 45 7.2 80 80 E 3 6 30.08 1019 10 16 0.00 0.00
5:53 am 05:53 Clear 48 8.9 43 6.1 83 83 W 8 13 30.09 1019 10 16 0.00 0.00
6:53 am 06:53 Sunny 48 8.9 44 6.7 86 86 NW 6 9 30.12 1020 9 14 0.00 0.00
7:53 am 07:53 Sunny 53 11.7 46 7.8 77 77 WNW 3 6 30.13 1020 8 13 0.00 0.00
8:53 am 08:53 Sunny 61 16.1 46 7.8 58 58 WNW 7 11 30.12 1020 10 16 0.00 0.00
9:53 am 09:53 Sunny 68 20 47 8.3 47 47 W 7 11 30.11 1020 10 16 0.00 0.00
10:53 am 10:53 Sunny 75 23.9 48 8.9 39 39 W 7 11 30.09 1019 10 16 0.00 0.00
11:53 am 11:53 Sunny 82 27.8 47 8.3 29 29 undefined N/A 30.08 1019 10 16 0.00 0.00
12:53 pm 12:53 Sunny 85 29.4 44 6.7 24 24 VRB 3 6 30.05 1018 10 16 0.00 0.00
1:53 pm 13:53 Sunny 87 30.6 41 5 20 20 VRB 5 7 30.02 1017 10 16 0.00 0.00
2:53 pm 14:53 Sunny 89 31.7 43 6.1 20 20 ENE 6 9 30.00 1016 10 16 0.00 0.00
3:53 pm 15:53 Sunny 88 31.1 39 3.9 18 18 ESE 6 9 29.99 1016 10 16 0.00 0.00
4:53 pm 16:53 Sunny 87 30.6 38 3.3 18 18 SE 8 13 29.99 1016 10 16 0.00 0.00
5:53 pm 17:53 Sunny 85 29.4 42 5.6 22 22 ESE 12 19 30.01 1016 10 16 0.00 0.00
6:53 pm 18:53 Sunny 76 24.4 45 7.2 33 33 E 9 15 30.03 1017 10 16 0.00 0.00
7:53 pm 19:53 Clear 67 19.4 46 7.8 47 47 ESE 9 15 30.05 1018 10 16 0.00 0.00
8:53 pm 20:53 Clear 63 17.2 45 7.2 52 52 ESE 6 9 30.06 1018 10 16 0.00 0.00
9:53 pm 21:53 Clear 61 16.1 45 7.2 56 56 ESE 5 7 30.05 1018 10 16 0.00 0.00
10:53 pm 22:53 Clear 58 14.4 45 7.2 62 62 E 7 11 30.04 1017 10 16 0.00 0.00
11:53 pm 23:53 Clear 58 14.4 45 7.2 62 62 E 6 9 30.02 1017 10 16 0.00 0.00

Powered by AerisWeather